Date,TemperatureHighF,TemperatureAvgF,TemperatureLowF,DewpointHighF,DewpointAvgF,DewpointLowF,HumidityHigh,HumidityAvg,HumidityLow,PressureMaxIn,PressureMinIn,WindSpeedMaxMPH,WindSpeedAvgMPH,GustSpeedMaxMPH,PrecipitationSumIn
2013-1-1,40.5,31.3,25.2,33.8,26.3,21.2,98,85,53,29.97,29.83,11,2,11,0.00
2013-1-2,43.0,29.9,20.7,33.8,23.3,19.4,98,80,48,29.85,29.71,7,1,8,0.00
2013-1-3,33.3,22.8,19.9,33.8,20.7,17.6,98,96,91,29.74,29.65,3,0,3,0.00
2013-1-4,56.3,45.2,37.2,44.6,41.5,37.4,98,87,62,29.85,29.71,8,3,9,0.00
2013-1-5,38.5,36.1,34.3,37.4,35.2,30.2,98,94,82,29.74,29.68,8,2,8,0.00
2013-1-6,51.4,42.4,37.0,46.4,40.6,37.4,98,91,72,29.80,29.62,6,1,8,0.16
2013-1-7,56.5,48.2,43.3,53.6,47.6,42.8,98,96,83,29.77,29.59,11,4,15,0.13
2013-1-8,57.0,50.9,46.9,50.0,48.2,46.4,98,90,72,29.77,29.50,9,5,10,0.04
2013-1-9,49.6,42.7,33.6,48.2,40.6,33.8,98,91,76,29.56,29.29,16,3,20,0.29
2013-1-10,42.3,36.8,33.6,39.2,36.3,33.8,98,95,83,29.68,29.53,7,2,8,0.08
2013-1-11,39.2,30.7,24.1,35.6,27.8,21.2,98,91,58,29.83,29.65,7,2,8,0.00
2013-1-12,41.0,27.3,18.7,37.4,25.0,17.6,98,94,62,29.91,29.83,8,2,8,0.00
2013-1-13,30.6,27.1,25.7,26.6,24.0,21.2,98,93,75,30.03,29.91,5,2,6,0.00
2013-1-14,38.3,31.1,26.1,32.0,28.0,24.8,98,90,68,30.09,30.00,5,2,6,0.00
2013-1-15,36.0,33.7,32.2,35.6,34.0,32.0,98,98,96,30.18,30.06,6,2,6,0.00
2013-1-16,36.9,33.6,32.2,35.6,33.7,32.0,98,98,89,30.15,30.00,6,3,6,0.00
2013-1-17,35.1,32.7,31.8,35.6,32.2,30.2,98,98,98,30.03,29.83,3,3,4,0.00
2013-1-18,35.1,31.0,28.6,35.6,30.1,26.6,98,98,96,29.88,29.80,3,3,4,0.00
2013-1-19,32.9,29.1,25.7,33.8,28.1,24.8,98,98,98,29.88,29.80,3,2,4,0.00
2013-1-20,31.6,28.0,25.2,30.2,26.7,24.8,98,98,98,29.88,29.77,4,1,4,0.00
2013-1-21,31.5,27.3,24.8,30.2,26.0,23.0,98,98,98,29.83,29.68,1,0,2,0.00
2013-1-22,36.7,28.4,24.1,35.6,27.1,23.0,98,97,89,29.71,29.47,0,0,0,0.00
2013-1-23,36.1,33.2,30.2,35.6,32.5,28.4,98,98,87,29.74,29.44,0,0,0,0.00
2013-1-24,45.3,36.6,31.5,44.6,36.7,30.2,98,98,94,29.77,29.65,5,1,6,0.00
2013-1-25,52.9,46.7,37.9,53.6,46.8,37.4,98,98,92,29.71,29.50,5,2,6,0.96
2013-1-26,50.5,41.0,37.2,42.8,40.1,35.6,98,95,63,29.65,29.50,11,2,11,0.00
2013-1-27,45.5,39.8,36.5,42.8,39.2,37.4,98,95,80,29.71,29.62,10,3,11,0.45
2013-1-28,43.0,42.6,42.3,42.8,42.8,42.8,98,98,98,29.80,29.74,8,5,10,0.12
2013-1-29,47.3,44.0,41.2,48.2,44.1,41.0,98,98,95,30.06,29.77,8,4,11,0.29
2013-1-30,49.1,45.1,42.1,48.2,45.4,42.8,98,97,92,30.06,29.97,7,3,10,0.13
2013-1-31,58.5,48.5,43.5,51.8,45.0,39.2,98,87,50,29.97,29.85,3,1,3,0.08
2013-2-1,55.9,43.9,34.3,48.2,41.8,33.8,98,91,60,29.88,29.77,9,2,11,0.00
2013-2-2,47.1,38.6,33.3,44.6,38.4,33.8,98,97,86,29.85,29.77,3,1,4,0.00
2013-2-3,47.8,40.1,34.9,48.2,40.4,35.6,98,98,98,29.88,29.83,4,2,4,0.00
2013-2-4,46.0,44.4,43.5,44.6,43.7,42.8,98,95,88,29.56,29.47,3,-82,4,0.00
2013-2-5,54.5,46.5,43.3,48.2,43.2,39.2,98,87,67,29.62,29.47,11,5,14,0.09
2013-2-6,54.7,46.9,41.4,42.8,40.7,37.4,98,79,52,29.68,29.41,11,5,13,0.00
2013-2-7,54.3,41.2,32.5,42.8,37.5,33.8,98,87,49,29.68,29.47,11,3,13,0.00
2013-2-8,45.9,37.2,32.4,37.4,34.0,30.2,98,87,59,29.83,29.65,10,2,11,0.00
2013-2-9,47.8,40.2,33.8,42.8,38.3,33.8,98,91,69,29.85,29.80,0,0,0,0.00
2013-2-10,48.6,41.8,41.0,42.8,41.2,39.2,98,96,74,29.88,29.83,0,0,0,0.00
2013-2-11,48.9,42.7,41.4,39.2,39.0,37.4,92,86,62,29.91,29.88,0,-999,0,0.00
2013-2-18,42.8,42.1,40.5,37.4,34.6,32.0,88,73,69,29.38,29.32,0,-999,0,0.00
2013-2-19,54.3,41.8,34.0,41.0,37.0,32.0,98,83,51,29.56,29.21,7,-64,9,0.00
2013-2-20,50.5,40.6,33.1,41.0,37.5,32.0,98,89,53,29.68,29.53,0,-256,0,0.00
2013-2-21,45.9,40.8,36.3,42.8,39.8,37.4,98,94,74,29.80,29.68,0,-999,0,0.00
2013-2-22,45.5,42.4,36.7,44.6,40.9,35.6,98,93,75,29.77,29.47,0,-999,0,0.00
2013-2-23,48.4,39.0,31.5,42.8,37.0,30.2,98,91,69,29.97,29.65,0,-999,0,0.00
2013-2-24,54.9,42.0,30.7,42.8,34.7,30.2,98,77,43,30.00,29.65,6,-36,8,0.00
2013-2-25,54.0,42.5,34.0,42.8,37.8,28.4,98,83,42,29.91,29.59,15,5,15,0.00
2013-2-26,57.2,41.6,31.3,46.4,34.3,30.2,98,77,39,29.94,29.77,5,1,6,0.00
2013-2-27,56.3,45.5,37.4,44.6,39.5,35.6,96,80,52,29.85,29.77,6,1,10,0.00
2013-2-28,52.9,52.7,52.2,53.6,52.2,51.8,98,97,96,29.97,29.97,4,2,5,0.00
2013-3-1,67.1,55.5,47.7,53.6,49.7,44.6,98,82,46,30.00,29.83,7,2,9,0.00
2013-3-2,56.8,49.9,42.6,50.0,46.8,39.2,98,88,72,29.85,29.71,8,2,9,1.49
2013-3-3,52.0,41.9,31.8,39.2,32.0,-99.9,98,70,40,29.88,29.74,13,4,15,0.00
2013-3-4,61.5,42.0,28.6,39.2,32.0,24.8,98,73,34,29.77,29.44,5,2,5,0.00
2013-3-5,53.8,42.3,34.0,46.4,40.6,32.0,98,92,57,29.44,29.18,9,2,9,0.00
2013-3-6,44.1,41.9,39.7,42.8,40.0,37.4,98,92,77,29.53,29.09,7,3,11,0.00
2013-3-7,61.5,45.3,30.0,48.2,35.3,28.4,98,72,36,29.59,29.50,1,1,3,0.00
2013-3-8,59.2,43.4,30.4,44.6,36.2,28.4,98,78,42,29.74,29.53,1,1,3,0.00
2013-3-9,66.0,45.0,28.6,44.6,34.0,26.6,98,71,33,30.03,29.71,1,1,3,0.00
2013-3-10,56.5,45.1,33.1,48.2,39.1,30.2,98,80,52,30.06,29.91,1,1,3,0.00
2013-3-11,65.3,52.4,45.7,53.6,48.2,46.4,98,85,53,29.94,29.77,4,2,6,0.00
2013-3-12,64.8,51.3,42.3,55.4,47.0,42.8,98,85,51,29.80,29.68,0,0,0,0.00
2013-3-13,72.7,56.2,45.1,51.8,46.8,41.0,98,74,35,29.80,29.59,0,0,0,0.00
2013-3-14,61.9,53.1,45.5,53.6,46.4,39.2,98,79,44,29.77,29.59,0,0,0,0.00
2013-3-15,72.5,57.8,50.2,55.4,47.8,41.0,96,71,34,29.80,29.68,0,0,0,0.00
2013-3-16,51.4,46.9,39.4,48.2,45.2,37.4,98,92,75,29.74,29.56,0,0,0,0.00
2013-3-17,54.7,42.4,33.8,41.0,36.1,30.2,98,79,46,29.85,29.71,7,2,7,0.00
2013-3-18,62.4,44.4,29.5,44.6,33.5,28.4,98,70,35,29.85,29.68,0,0,0,0.00
2013-3-19,52.2,43.4,34.3,50.0,40.0,32.0,98,86,64,29.68,29.23,0,0,0,0.00
2013-3-20,56.1,48.6,39.0,51.8,43.2,32.0,98,82,50,29.74,29.12,15,5,20,0.00
2013-3-21,53.6,41.7,36.1,41.0,35.3,30.2,98,78,46,29.85,29.74,13,4,15,0.00
2013-3-22,56.3,40.5,30.7,42.8,33.4,28.4,98,77,40,29.94,29.83,1,1,2,0.00
2013-3-23,52.3,41.5,31.5,39.2,31.7,23.0,98,71,38,29.91,29.77,1,1,2,0.00
2013-3-24,59.7,44.2,32.7,39.2,34.6,-99.9,96,71,41,29.80,29.59,1,-567,2,0.00
2013-3-25,62.2,47.8,36.1,41.0,36.8,32.0,95,67,40,29.62,29.44,0,-999,0,0.00
2013-3-26,59.5,49.6,42.4,48.2,44.8,41.0,98,83,57,29.59,29.47,3,-402,4,0.00
2013-3-27,72.5,52.4,38.5,51.8,44.6,39.2,98,78,35,29.56,29.41,10,2,10,0.00
2013-3-28,71.1,55.6,46.6,53.6,48.6,42.8,98,80,35,29.68,29.53,6,3,8,0.00
2013-3-29,74.8,58.1,48.0,57.2,49.4,46.4,98,75,40,29.77,29.65,8,2,9,0.00
2013-3-30,75.4,58.4,44.1,51.8,47.8,44.6,98,71,39,29.71,29.47,9,5,10,0.00
2013-3-31,79.5,61.8,44.1,53.6,48.5,44.6,98,66,33,29.53,29.44,7,2,7,0.00
2013-4-1,64.9,56.7,53.1,51.8,50.3,48.2,92,79,56,29.74,29.65,0,-999,0,0.00
2013-4-2,74.5,58.6,48.2,53.6,47.7,42.8,98,71,34,29.77,29.65,0,-999,0,0.00
2013-4-3,66.4,52.8,39.0,53.6,47.9,39.2,98,84,58,29.71,29.44,0,-999,0,0.00
2013-4-4,64.0,56.8,53.1,59.0,53.4,48.2,98,87,66,29.44,29.23,0,-999,0,0.00
2013-4-5,60.3,54.0,51.3,53.6,50.0,46.4,97,86,62,29.53,29.38,6,-869,10,0.00
2013-4-6,61.9,51.8,46.9,51.8,48.1,41.0,98,87,56,29.56,29.29,11,5,15,0.00
2013-4-7,54.3,48.0,41.2,48.2,42.3,37.4,96,79,58,29.53,29.18,13,-328,17,0.00
2013-4-8,60.3,47.1,37.9,46.4,40.5,37.4,98,78,47,29.83,29.56,0,-999,0,0.00
2013-4-9,64.4,47.4,34.5,48.2,39.9,33.8,98,77,42,29.91,29.77,0,-999,0,0.00
2013-4-10,66.9,54.3,41.5,55.4,44.4,37.4,93,70,45,29.88,29.71,0,-999,0,0.00
2013-4-11,64.2,49.2,36.9,48.2,38.9,33.8,98,71,36,29.88,29.71,0,-999,0,0.00
2013-4-12,59.0,45.9,32.4,48.2,40.3,32.0,98,81,51,29.71,29.41,5,-421,5,3.27
2013-4-13,58.1,46.1,38.1,42.8,36.3,32.0,95,70,38,29.68,29.50,2,2,5,0.00
2013-4-19,64.8,55.2,48.2,55.4,46.7,-99.9,93,74,54,29.85,29.77,0,-999,0,0.00
2013-4-20,70.5,53.7,41.0,50.0,44.3,37.4,98,73,37,29.91,29.77,0,-999,0,0.00
2013-4-21,62.6,51.7,41.2,48.2,43.9,39.2,97,75,49,29.85,29.77,0,-999,0,0.00
2013-4-22,67.8,53.3,39.2,44.6,36.9,24.8,98,59,27,29.94,29.83,0,-999,0,0.00
2013-4-23,70.5,53.9,35.4,37.4,30.8,23.0,73,43,24,29.88,29.65,11,-620,11,0.00
2013-4-24,75.6,57.2,35.4,41.0,34.0,28.4,78,45,23,29.77,29.53,14,5,18,0.00
2013-4-25,82.4,61.2,37.9,46.4,39.8,28.4,93,50,22,29.68,29.53,6,1,6,0.00
2013-4-26,83.5,63.6,41.0,53.6,44.2,37.4,94,54,22,29.80,29.65,7,2,8,0.66
2013-4-27,82.8,60.0,40.8,51.8,40.9,33.8,95,55,21,29.80,29.71,8,4,11,0.00
2013-4-28,75.4,59.3,49.8,51.8,45.2,39.2,92,62,33,29.83,29.65,7,4,10,0.00
2013-4-29,66.9,54.3,40.3,51.8,39.3,28.4,98,60,32,29.77,29.62,4,4,10,0.05
2013-4-30,67.6,47.2,30.4,42.8,32.7,26.6,98,61,32,29.94,29.77,4,4,10,0.00
2013-5-1,70.5,53.4,34.7,41.0,35.7,30.2,87,54,31,30.03,29.91,4,4,10,0.00
2013-5-2,80.8,62.7,39.6,44.6,36.8,30.2,77,41,22,29.94,29.71,4,4,10,0.00
2013-5-3,80.6,64.6,45.1,48.2,39.8,32.0,66,41,26,29.80,29.59,4,4,10,0.00
2013-5-4,87.8,69.5,45.0,48.2,38.8,30.2,84,37,18,29.62,29.35,13,6,15,0.00
2013-5-5,92.7,73.1,54.5,46.4,38.7,30.2,65,30,17,29.38,29.15,10,6,13,0.00
2013-5-6,88.0,66.8,45.7,51.8,47.7,42.8,91,54,26,29.47,29.29,9,3,10,0.00
2013-5-7,83.1,63.4,46.8,51.8,47.9,42.8,98,61,30,29.59,29.44,8,2,9,0.00
2013-5-8,72.9,56.1,43.2,51.8,48.3,42.8,98,77,46,29.71,29.59,8,2,10,0.00
2013-5-9,81.3,64.1,43.7,55.4,50.0,42.8,98,65,32,29.74,29.59,11,2,11,0.00
2013-5-10,89.2,68.5,46.6,55.4,51.6,46.4,98,60,28,29.74,29.59,7,1,10,0.00
2013-5-11,95.9,71.7,54.3,59.0,53.6,48.2,88,58,21,29.74,29.53,0,0,0,0.00
2013-5-12,83.5,66.3,56.5,60.8,56.2,51.8,97,73,42,29.71,29.59,0,0,0,0.00
2013-5-13,73.2,61.1,48.9,57.2,49.2,42.8,97,66,37,29.74,29.59,0,-999,0,0.08
2013-5-14,74.1,59.1,46.6,48.2,41.7,32.0,97,58,25,29.77,29.59,0,-999,0,0.00
2013-5-15,66.2,53.8,44.8,53.6,46.7,39.2,93,76,53,29.68,29.53,0,-999,0,0.12
2013-5-16,67.6,56.3,50.2,57.2,52.6,48.2,98,87,52,29.59,29.47,6,-348,7,0.21
2013-5-17,76.5,58.2,45.5,55.4,47.5,41.0,98,71,33,29.59,29.53,8,2,12,0.00
2013-5-19,67.5,59.1,50.2,46.4,44.2,42.8,83,59,43,29.88,29.83,8,3,11,0.08
2013-5-20,79.5,65.0,51.4,51.8,44.2,32.0,84,49,31,29.85,29.47,8,3,9,0.00
2013-5-21,61.0,48.6,40.6,51.8,45.2,35.6,98,87,51,29.56,29.38,7,2,7,0.54
2013-5-22,52.0,45.0,40.5,48.2,44.1,39.2,98,94,81,29.59,29.50,8,4,13,0.33
2013-5-23,63.5,50.8,44.8,50.0,45.7,41.0,98,84,44,29.59,29.53,11,4,13,0.33
2013-5-24,63.3,53.3,47.3,50.0,46.5,42.8,98,78,46,29.65,29.53,11,5,13,0.16
2013-5-25,76.6,60.1,45.0,53.6,46.7,41.0,98,66,31,29.65,29.47,6,6,9,0.00
2013-5-26,70.7,58.7,49.6,55.4,50.1,44.6,98,74,43,29.59,29.47,6,6,9,0.00
2013-5-27,68.9,56.7,49.5,62.6,52.7,44.6,98,86,54,29.56,29.29,6,6,9,0.00
2013-5-28,70.2,58.6,51.4,55.4,48.3,41.0,98,71,37,29.50,29.32,6,6,9,0.00
2013-5-29,70.7,57.3,49.8,55.4,49.5,42.8,98,77,44,29.62,29.18,6,6,9,0.00
2013-5-30,72.1,57.6,48.4,55.4,46.4,41.0,96,68,36,29.80,29.59,6,5,9,0.00
2013-5-31,73.0,60.3,44.1,51.8,45.5,42.8,98,62,36,29.85,29.74,10,3,14,0.00
2013-6-1,80.4,68.8,57.9,53.6,52.1,50.0,76,56,36,29.59,29.53,7,2,9,0.00
2013-6-2,75.2,63.3,54.0,53.6,50.6,46.4,86,65,37,29.62,29.53,10,4,16,0.00
2013-6-3,76.5,62.2,47.8,53.6,49.4,44.6,98,67,33,29.65,29.53,12,4,13,0.00
2013-6-4,84.9,67.9,49.5,57.2,51.0,46.4,92,58,32,29.62,29.47,9,4,11,0.00
2013-6-5,87.4,71.2,50.9,60.8,53.3,46.4,98,59,25,29.62,29.47,9,3,10,0.00
2013-6-6,86.4,71.2,56.3,59.0,54.9,46.4,94,60,32,29.59,29.47,9,3,11,0.00
2013-6-7,94.6,69.6,49.5,57.2,50.2,41.0,94,56,19,29.68,29.56,10,2,13,0.00
2013-6-8,82.2,66.2,51.6,55.4,48.2,39.2,94,58,23,29.71,29.53,10,5,13,1.33
2013-6-9,76.1,63.5,51.3,51.8,47.6,42.8,87,58,32,29.62,29.47,13,7,19,0.00
2013-6-10,74.8,60.2,46.0,46.4,43.7,39.2,91,57,32,29.56,29.41,11,6,13,0.00
2013-6-11,75.6,60.1,51.3,48.2,43.7,39.2,77,56,32,29.68,29.53,9,2,10,0.00
2013-6-12,52.5,51.0,49.8,48.2,46.3,44.6,91,84,74,29.68,29.65,0,0,0,0.00
2013-6-29,92.7,81.2,58.8,62.6,57.8,53.6,95,48,28,29.62,29.47,9,3,9,0.00
2013-6-30,99.7,79.5,57.2,64.4,59.7,55.4,98,56,25,29.53,29.35,8,2,8,0.00
2013-7-1,99.0,78.5,61.0,66.2,61.4,57.2,95,60,30,29.56,29.44,7,2,8,0.00
2013-7-2,94.3,77.1,61.2,64.4,60.3,51.8,97,60,33,29.62,29.50,10,3,12,0.00
2013-7-3,89.2,72.9,59.9,57.2,50.0,41.0,76,49,19,29.65,29.53,11,5,11,0.00
2013-7-4,79.7,65.8,52.7,51.8,49.8,46.4,89,59,33,29.68,29.53,13,6,17,0.00
2013-7-5,77.0,65.2,55.0,53.6,49.9,46.4,83,59,37,29.62,29.47,11,4,13,0.00
2013-7-6,78.6,64.7,50.5,55.4,52.5,48.2,96,67,41,29.53,29.35,12,4,16,0.00
2013-7-7,82.9,66.6,49.5,59.0,53.9,48.2,98,67,39,29.53,29.41,10,3,11,0.00
2013-7-8,85.1,66.6,50.0,55.4,52.5,48.2,98,65,30,29.62,29.47,12,3,12,0.00
2013-7-9,92.7,75.5,53.2,60.8,55.7,50.0,98,55,24,29.62,29.47,9,4,11,0.00
2013-7-10,87.1,71.6,54.7,55.4,51.5,46.4,86,52,28,29.59,29.41,11,4,13,0.00
2013-7-11,79.3,64.6,51.8,48.2,46.0,42.8,80,53,27,29.62,29.47,14,7,18,0.00
2013-7-12,82.0,65.4,48.4,50.0,46.6,42.8,88,54,25,29.62,29.50,10,4,11,0.00
2013-7-13,82.8,65.4,51.1,50.0,46.4,37.4,86,55,22,29.68,29.53,14,7,21,0.00
2013-7-14,90.5,82.5,64.8,51.8,45.7,35.6,42,28,19,29.59,29.47,12,-82,13,0.00
2013-7-15,88.0,59.3,54.1,50.0,39.7,35.6,66,48,27,29.56,29.29,0,-999,0,0.00
2013-7-16,72.3,63.2,59.0,57.2,55.2,53.6,84,74,54,29.56,29.41,0,-999,0,0.00
2013-7-17,87.1,70.0,57.4,57.2,52.0,46.4,84,56,29,29.71,29.56,0,-999,0,0.00
2013-7-18,87.1,68.9,48.9,57.2,51.3,42.8,98,60,22,29.74,29.56,0,-999,0,0.00
2013-7-19,86.7,68.7,49.8,57.2,54.1,48.2,96,63,34,29.71,29.50,0,-999,0,0.00
2013-7-20,82.9,65.8,50.5,57.2,54.3,50.0,98,70,37,29.62,29.47,12,-589,15,0.00
2013-7-21,87.1,69.8,49.1,57.2,53.5,48.2,98,60,30,29.53,29.41,12,4,12,0.00
2013-7-22,87.6,70.6,55.6,59.0,52.5,42.8,98,60,22,29.56,29.47,12,5,15,0.00
2013-7-23,93.7,73.5,51.3,59.0,54.0,48.2,98,56,23,29.59,29.44,10,3,11,0.00
2013-7-24,95.7,75.9,53.1,57.2,51.1,42.8,93,48,18,29.56,29.47,12,3,16,0.00
2013-7-25,93.6,75.6,53.6,57.2,48.4,37.4,88,44,17,29.59,29.50,11,4,17,0.00
2013-7-26,85.1,64.9,52.3,53.6,46.8,35.6,89,55,23,29.71,29.56,9,-21,12,0.00
2013-7-27,85.3,69.4,51.3,48.2,45.0,41.0,76,44,22,29.71,29.47,12,5,15,0.00
2013-7-28,72.5,63.7,59.4,51.8,51.0,48.2,74,63,43,29.50,29.47,8,6,10,0.00
2013-7-29,86.4,66.2,49.3,55.4,50.5,44.6,96,61,29,29.56,29.44,9,4,10,0.00
2013-7-30,85.5,67.6,47.1,57.2,51.8,46.4,98,62,30,29.68,29.56,11,2,11,0.00
2013-7-31,87.1,66.7,54.0,59.0,55.0,51.8,98,69,31,29.65,29.53,6,2,8,0.00
2013-8-1,71.4,61.7,56.8,57.2,54.8,53.6,96,78,57,29.68,29.59,5,3,6,0.00
2013-8-2,84.2,66.0,56.8,57.2,52.4,48.2,95,65,32,29.68,29.59,9,3,11,0.00
2013-8-3,84.0,67.4,48.7,59.0,52.8,48.2,98,64,32,29.65,29.47,10,4,12,0.00
2013-8-4,95.7,75.0,52.5,60.8,55.5,50.0,98,56,24,29.56,29.41,9,3,11,0.00
2013-8-5,95.2,74.7,55.0,60.8,55.1,50.0,98,57,23,29.56,29.41,8,2,10,0.00
2013-8-6,95.7,76.7,53.8,60.8,48.4,37.4,97,46,16,29.50,29.35,9,3,12,0.00
2013-8-7,88.7,68.8,56.3,53.6,51.1,46.4,83,56,29,29.59,29.41,9,3,9,0.00
2013-8-8,84.9,68.0,54.5,59.0,54.6,50.0,95,66,33,29.62,29.41,11,3,11,0.00
2013-8-9,90.1,72.6,62.8,62.6,56.2,51.8,89,60,30,29.50,29.35,9,2,11,0.00
2013-8-10,90.5,69.1,57.0,62.6,57.2,53.6,98,70,30,29.59,29.47,7,2,8,0.00
2013-8-11,83.3,66.3,56.7,59.0,56.1,53.6,98,72,38,29.62,29.47,6,2,8,0.00
2013-8-12,81.1,66.1,56.1,59.0,55.3,48.2,95,71,40,29.62,29.53,5,1,6,0.00
2013-8-13,89.2,68.5,47.5,59.0,50.8,44.6,98,60,24,29.65,29.44,9,2,10,0.00
2013-8-14,95.2,70.7,52.5,60.8,52.0,42.8,98,59,18,29.50,29.44,7,3,8,0.00
2013-8-15,89.2,71.4,60.1,64.4,60.2,55.4,91,70,37,29.50,29.47,6,2,6,0.00
2013-8-16,94.3,73.8,61.5,68.0,61.0,53.6,97,68,29,29.62,29.47,8,2,10,0.00
2013-8-17,91.9,70.0,52.2,62.6,54.8,51.8,98,64,28,29.62,29.53,8,2,10,0.00
2013-8-18,88.7,71.0,53.4,62.6,55.0,50.0,98,63,28,29.68,29.53,8,2,9,0.00
2013-8-19,90.7,72.4,54.1,60.8,54.1,46.4,97,57,26,29.65,29.53,10,4,13,0.00
2013-8-20,85.8,69.7,54.5,55.4,49.1,41.0,86,52,22,29.68,29.47,14,7,21,0.00
2013-8-21,92.8,73.1,51.6,53.6,50.5,46.4,84,48,24,29.53,29.35,8,4,11,0.00
2013-8-22,90.3,72.5,57.6,60.8,56.1,51.8,96,61,28,29.47,29.35,6,3,6,0.00
2013-8-23,81.5,66.1,56.5,60.8,56.0,50.0,98,73,35,29.50,29.41,3,3,3,0.00
2013-8-24,84.2,67.1,53.6,59.0,53.8,48.2,98,66,32,29.47,29.35,3,3,3,0.00
2013-8-25,78.3,62.6,52.0,64.4,57.0,51.8,98,83,48,29.50,29.41,3,3,3,0.00
2013-8-26,84.2,67.8,56.5,62.6,54.5,44.6,98,68,26,29.50,29.41,3,3,3,0.00
2013-8-27,91.6,71.5,56.7,59.0,55.3,48.2,95,62,26,29.50,29.29,3,3,3,0.00
2013-8-28,88.9,72.7,59.0,64.4,58.1,53.6,98,64,31,29.47,29.35,4,4,4,0.00
2013-8-29,81.9,69.4,63.1,71.6,62.6,59.0,98,80,50,29.62,29.38,4,4,4,0.00
2013-8-30,90.3,72.7,60.1,68.0,58.5,51.8,98,66,30,29.68,29.53,4,4,4,0.00
2013-8-31,94.5,73.2,52.5,62.6,56.4,51.8,98,63,27,29.56,29.32,4,4,4,0.00
2013-9-1,90.0,71.4,59.5,53.6,50.4,48.2,78,51,25,29.44,29.32,0,-999,0,0.00
2013-9-2,87.1,71.0,58.5,59.0,53.1,46.4,87,56,29,29.50,29.41,0,-999,0,0.00
2013-9-3,89.2,71.2,58.3,60.8,53.3,48.2,98,59,26,29.59,29.47,3,-415,6,0.00
2013-9-4,85.3,67.6,55.4,59.0,54.5,50.0,97,66,35,29.59,29.50,0,0,4,0.00
2013-9-5,75.6,62.5,57.6,64.4,59.6,57.2,98,90,56,29.62,29.53,0,-288,4,0.00
2013-9-6,78.4,64.4,56.1,66.2,57.3,50.0,98,81,40,29.71,29.59,0,-999,0,0.00
2013-9-7,80.1,64.8,52.0,62.6,55.9,51.8,98,76,41,29.65,29.47,0,-999,0,0.00
2013-9-8,85.3,69.5,52.7,64.4,56.6,51.8,98,68,32,29.62,29.47,0,-999,0,0.00
2013-9-9,83.8,70.1,54.9,64.4,58.2,55.4,98,69,39,29.59,29.41,11,-293,15,0.00
2013-9-10,90.3,73.2,57.6,64.4,61.5,57.2,98,70,37,29.47,29.29,9,4,9,0.00
2013-9-11,99.1,74.3,56.1,66.2,59.2,55.4,98,66,27,29.50,29.35,5,2,6,0.00
2013-9-12,87.1,68.0,56.8,60.8,59.0,57.2,98,76,40,29.56,29.41,3,3,6,0.00
2013-9-13,78.3,65.6,54.9,64.4,59.7,55.4,98,82,53,29.53,29.35,3,3,6,0.00
2013-9-14,82.6,65.5,56.3,66.2,60.1,57.2,98,84,44,29.41,29.23,3,3,6,0.00
2013-9-15,70.2,62.2,59.0,62.6,59.8,57.2,98,91,67,29.47,29.29,3,-246,6,0.00
2013-9-16,80.2,64.7,57.9,57.2,55.3,50.0,95,74,36,29.53,29.44,0,-999,0,0.00
2013-9-17,72.5,61.3,56.3,59.0,53.5,46.4,98,77,42,29.59,29.41,0,-999,0,4.40
2013-9-18,79.5,61.8,51.1,62.6,51.3,42.8,98,73,31,29.65,29.53,0,-999,0,0.00
2013-9-19,84.4,62.3,43.0,55.4,48.9,42.8,98,67,30,29.56,29.29,0,-999,0,0.00
2013-9-20,77.7,59.2,46.0,59.0,52.4,46.4,98,81,41,29.32,29.21,0,-999,0,0.00
2013-9-21,71.6,60.9,54.5,60.8,54.6,48.2,98,81,45,29.38,29.23,0,-999,0,0.00
2013-9-22,61.5,57.1,54.5,59.0,55.2,50.0,98,92,70,29.44,29.26,0,-999,0,0.00
2013-9-23,68.0,57.7,53.2,59.0,55.4,50.0,98,91,64,29.59,29.44,6,-428,6,0.00
2013-9-24,64.9,54.8,48.7,57.2,52.2,48.2,98,89,55,29.56,29.41,8,3,8,1.20
2013-9-25,67.3,53.5,47.8,53.6,49.0,42.8,98,85,48,29.59,29.41,4,1,6,0.17
2013-9-26,71.4,56.2,45.5,57.2,47.7,41.0,98,76,37,29.74,29.59,0,0,0,0.00
2013-9-27,61.0,51.3,41.9,57.2,50.1,42.8,98,94,64,29.74,29.47,0,-679,0,0.00
2013-9-28,67.8,58.5,52.0,59.0,55.9,51.8,98,90,61,29.50,29.09,0,-999,0,1.41
2013-9-29,57.7,54.0,52.0,57.2,53.5,51.8,98,96,90,29.29,29.00,0,-999,0,1.12
2013-9-30,61.7,54.8,50.4,55.4,49.8,48.2,96,82,64,29.59,29.12,9,-144,9,0.25
2013-10-1,59.9,49.6,43.7,50.0,46.6,42.8,98,89,63,29.74,29.53,4,4,4,0.37
2013-10-2,59.2,47.1,38.7,51.8,44.8,39.2,98,90,62,29.74,29.62,4,4,4,0.08
2013-10-3,65.7,49.1,38.7,51.8,43.5,37.4,98,82,45,29.94,29.71,4,4,4,0.00
2013-10-4,63.1,47.0,34.7,48.2,42.9,35.6,98,86,48,29.97,29.83,4,4,4,0.00
2013-10-5,72.3,52.3,35.2,53.6,44.2,35.6,98,77,38,29.85,29.65,4,3,4,0.00
2013-10-6,78.8,56.4,38.7,57.2,44.1,35.6,98,69,29,29.68,29.47,2,2,2,0.00
2013-10-7,69.3,54.9,48.4,55.4,49.1,42.8,98,81,41,29.71,29.53,2,2,2,0.00
2013-10-8,56.7,50.4,41.5,55.4,49.0,42.8,98,93,71,29.71,29.53,2,2,2,0.00
2013-10-9,60.8,47.4,39.0,46.4,43.2,39.2,98,85,53,29.65,29.50,2,2,2,0.00
2013-10-10,68.9,52.6,39.7,53.6,45.2,37.4,98,78,35,29.65,29.50,4,2,5,0.00
2013-10-11,66.0,52.0,41.0,53.6,44.1,37.4,98,76,40,29.71,29.65,3,3,3,0.00
2013-10-12,66.0,50.0,40.1,53.6,45.5,39.2,98,85,48,29.71,29.62,3,3,3,0.00
2013-10-13,61.2,47.4,37.2,48.2,43.3,37.4,98,85,54,29.83,29.71,3,3,3,0.00
2013-10-14,66.7,50.6,36.9,48.2,43.2,37.4,98,77,44,29.88,29.77,3,3,3,0.00
2013-10-15,69.4,50.8,36.1,44.6,39.6,35.6,98,69,32,29.83,29.65,8,3,11,0.00
2013-10-16,69.8,50.4,35.4,53.6,42.5,35.6,98,78,36,29.71,29.62,2,-672,2,0.00
2013-10-17,64.2,47.3,36.9,51.8,44.1,37.4,98,89,56,29.77,29.65,0,-999,0,0.38
2013-10-18,70.3,50.7,33.8,55.4,42.9,33.8,98,78,38,29.71,29.59,0,-999,0,0.00
2013-10-19,73.2,51.4,35.8,57.2,45.2,35.6,98,82,41,29.68,29.59,0,-999,0,0.00
2013-10-20,68.0,50.4,36.0,57.2,44.0,35.6,98,81,44,29.71,29.59,4,-240,4,0.00
2013-10-21,69.4,53.4,38.7,55.4,48.1,39.2,98,84,47,29.65,29.47,4,-44,4,0.00
2013-10-22,76.1,52.7,38.7,60.8,46.9,39.2,98,84,37,29.59,29.47,2,2,3,0.00
2013-10-23,72.5,52.1,38.8,59.0,48.0,39.2,98,87,46,29.56,29.47,2,2,3,0.00
2013-10-24,64.0,49.5,41.7,55.4,48.0,42.8,98,93,66,29.62,29.53,2,2,3,0.00
2013-10-25,52.0,49.1,41.7,51.8,49.2,42.8,98,98,98,29.83,29.62,2,2,3,0.00
2013-10-26,53.1,49.8,48.2,50.0,48.2,-99.9,98,94,84,29.83,29.71,3,-224,4,0.00
2013-10-27,57.9,49.6,41.9,53.6,47.2,39.2,98,90,70,29.71,29.35,11,3,11,0.00
2013-10-28,61.0,47.4,34.9,48.2,37.4,28.4,98,71,35,29.47,29.32,11,3,13,0.00
2013-10-29,61.5,41.8,27.7,42.8,31.4,26.6,98,71,34,29.62,29.47,5,1,6,0.00
2013-10-30,64.4,45.9,30.2,46.4,36.3,28.4,98,73,34,29.74,29.59,0,0,0,0.04
2013-10-31,56.7,51.6,44.1,55.4,49.5,44.6,98,91,74,29.83,29.71,0,0,0,0.00
2013-11-1,59.9,48.6,39.4,55.4,47.0,39.2,98,93,68,29.83,29.47,0,-93,0,0.00
2013-11-2,59.0,50.6,43.2,53.6,46.0,39.2,98,85,49,29.65,29.35,0,-999,0,0.00
2013-11-3,51.6,45.2,40.6,46.4,43.5,41.0,98,93,71,29.74,29.62,5,-430,5,0.00
2013-11-4,51.6,46.9,42.8,48.2,46.3,42.8,98,95,80,29.74,29.65,8,2,8,0.00
2013-11-5,53.2,51.1,47.8,53.6,51.0,48.2,98,98,98,29.83,29.65,6,2,9,0.00
2013-11-6,59.9,54.2,51.4,60.8,54.3,51.8,98,98,97,29.83,29.59,1,1,2,0.00
2013-11-7,56.3,51.6,45.9,55.4,49.7,41.0,98,91,61,29.71,29.47,1,1,2,0.00
2013-11-8,54.5,47.6,39.4,50.0,46.2,39.2,98,93,78,29.77,29.65,1,1,2,0.00
2013-11-9,50.0,44.1,39.0,48.2,43.6,39.2,98,96,84,29.65,29.59,1,1,2,0.00
2013-11-10,60.4,45.9,40.3,53.6,44.7,41.0,98,94,68,29.62,29.59,3,1,4,0.00
2013-11-11,56.3,46.2,43.5,55.4,46.3,42.8,98,97,84,29.68,29.56,4,1,4,0.00
2013-11-12,61.3,50.9,45.1,59.0,50.5,44.6,98,96,80,29.97,29.65,2,2,2,0.00
2013-11-13,56.8,49.6,46.0,55.4,49.4,46.4,98,97,80,30.00,29.83,2,2,2,0.00
2013-11-14,54.3,47.3,45.0,51.8,46.5,44.6,98,95,72,29.83,29.65,2,2,2,0.00
2013-11-15,50.4,45.0,39.9,46.4,44.2,39.2,98,95,80,29.65,29.15,9,2,10,0.00
2013-11-16,53.8,47.3,44.1,46.4,43.5,37.4,98,86,60,29.44,29.15,10,4,10,0.00
2013-12-5,24.1,22.4,21.6,17.6,15.9,14.0,88,80,67,29.71,29.65,0,-999,0,0.00
2013-12-6,29.1,25.5,21.9,23.0,18.5,8.6,95,79,51,29.68,29.47,7,-432,7,0.00
2013-12-7,30.9,20.1,9.0,10.4,-24.3,-99.9,69,51,37,29.94,29.56,7,7,7,0.00
2013-12-8,31.6,14.2,2.3,14.0,-56.0,-99.9,81,59,43,30.12,29.94,7,7,7,0.00
2013-12-9,32.0,20.1,6.8,19.4,-25.0,-99.9,89,71,54,30.15,30.03,7,4,7,0.00
2013-12-10,36.3,25.6,17.4,26.6,19.8,14.0,93,82,65,30.06,29.91,2,2,2,0.00
2013-12-11,30.9,21.7,15.6,28.4,19.1,12.2,98,94,88,29.91,29.71,2,2,2,1.20
2013-12-12,43.0,29.3,14.4,42.8,28.6,12.2,98,97,93,29.77,29.65,2,2,2,0.17
2013-12-13,56.1,43.0,34.3,51.8,42.3,33.8,98,95,74,29.97,29.77,3,1,6,0.17
2013-12-14,45.5,38.5,33.6,44.6,38.4,33.8,98,97,90,30.03,29.91,4,2,4,0.00
2013-12-15,51.6,42.5,34.2,50.0,41.6,33.8,98,94,80,30.03,29.94,3,3,3,0.08
2013-12-16,44.4,41.0,38.8,44.6,41.3,39.2,98,98,98,30.00,29.77,3,3,3,0.00
2013-12-17,38.8,36.7,34.2,39.2,37.0,33.8,98,98,98,29.80,29.71,3,3,3,0.00
2013-12-18,41.4,37.0,30.9,41.0,36.8,28.4,98,97,85,29.74,29.59,11,-219,13,0.04
2013-12-19,36.1,31.6,26.1,35.6,29.9,24.8,98,95,85,29.85,29.65,7,2,9,0.00
2013-12-20,45.3,36.8,30.9,44.6,36.6,30.2,98,98,98,29.80,29.47,2,-418,2,0.21
2013-12-21,58.1,47.9,45.1,53.6,46.8,44.6,98,94,69,29.83,29.50,0,-999,0,0.04
2013-12-22,55.4,48.2,39.9,51.8,47.7,39.2,98,96,83,29.91,29.77,0,-999,0,0.04
2013-12-23,51.1,44.8,32.0,51.8,44.9,30.2,98,98,98,30.06,29.85,0,-999,0,0.21
2013-12-24,41.5,34.1,28.9,42.8,33.7,28.4,98,98,95,30.15,30.00,4,-210,4,0.04
2013-12-25,37.9,34.1,32.2,37.4,34.5,32.0,98,98,98,30.03,29.91,3,3,4,0.00
2013-12-26,35.6,32.8,30.9,35.6,32.8,30.2,98,98,98,29.94,29.77,3,3,4,0.00
2013-12-27,38.3,33.7,30.0,39.2,33.2,28.4,98,98,98,29.91,29.74,3,3,4,0.00
2013-12-28,46.4,37.5,32.2,44.6,36.6,32.0,98,94,79,30.06,29.91,3,2,4,0.00
2013-12-29,39.7,36.4,33.4,37.4,36.3,33.8,98,97,90,29.97,29.83,2,2,2,0.00
2013-12-30,43.5,37.0,33.8,42.8,36.9,33.8,98,97,86,29.85,29.71,2,-324,2,0.00
2013-12-31,55.8,42.0,34.0,51.8,39.8,33.8,98,91,57,29.85,29.77,0,-999,0,0.00
2014-1-1,41.2,38.8,36.3,41.0,39.1,37.4,98,98,98,29.91,29.80,2,-764,3,0.00